Regional Weather Roundup
Issued by NWS

Home | Current Version | Previous Version | Graphics & Text | Print | Product List | Glossary On
Versions: 1 2 3 4 5 6 7 8 9 10 11 12 13 14 15 16 17 18 19 20 21 22 23 24 25 26 27 28 29 30 31 32 33 34 35 36 37 38 39 40 41 42 43 44 45 46 47 48 49 50
000
ASUS43 KTOP 300659
RWRKS

WEATHER ROUNDUP FOR KANSAS
NATIONAL WEATHER SERVICE GOODLAND KS
100 AM CST FRI JAN 30 2015

NOTE:  "FAIR" INDICATES FEW OR NO CLOUDS BELOW 12,000 FEET WITH NO
SIGNIFICANT WEATHER AND/OR OBSTRUCTIONS TO VISIBILITY.

KSZ001>006-013>018-027>032-041>047-300800-
NORTHWEST KANSAS

CITY           SKY/WX    TMP DP  RH WIND       PRES   REMARKS
GOODLAND       CLOUDY    31  21  66 S10       30.44F WCI  22
HAYS           MOCLDY    19   9  63 NW3       30.50S
HILL CITY      PTCLDY    19  13  77 CALM      30.49F
RUSSELL        PTCLDY    25  20  81 CALM      30.49F
$$

KSZ061>065-074>080-084>089-300800-
SOUTHWEST KANSAS

CITY           SKY/WX    TMP DP  RH WIND       PRES   REMARKS
DODGE CITY     PTCLDY    26  18  71 SW5       30.50F
ELKHART          N/A     35  23  61 S7          N/A
GARDEN CITY    MOCLDY    24  18  77 S5        30.48F
LIBERAL        MOCLDY    32  19  59 CALM      30.51F
$$

KSZ066>073-081>083-090>101-300800-
SOUTHEAST KANSAS

CITY           SKY/WX    TMP DP  RH WIND       PRES   REMARKS
CHANUTE        CLEAR     29  25  85 N3        30.54R
COFFEYVILLE    CLEAR     28  25  88 N3        30.55R
HUTCHINSON     PTCLDY    21  18  88 NW3       30.52F
MEDICINE LODGE   N/A     26  22  84 N5        30.52F
NEWTON         CLEAR     30  19  64 NE5       30.53F
PARSONS        CLEAR     25  22  88 CALM      30.56R
WICHITA INTL   PTCLDY    26  20  77 W3        30.52F
WICHITA JABRA  PTCLDY    28  23  81 NE5       30.52S
WINFIELD       CLEAR     25  19  78 CALM      30.54F
$$

KSZ007>012-019>026-033>040-048>060-102>105-300800-
NORTHEAST KANSAS

CITY           SKY/WX    TMP DP  RH WIND       PRES   REMARKS
CONCORDIA      PTCLDY    25  20  81 CALM      30.53S
EMPORIA        CLEAR     25  22  88 NW5       30.54S
LAWRENCE       CLEAR     16  14  92 N6        30.55R
MANHATTAN      CLEAR     20  18  92 CALM      30.56R
OLATHE IND     CLEAR     22  19  89 NW6       30.53S
OLATHE EXE     CLEAR     28  23  81 N3        30.51S
SALINA         CLEAR     26  20  77 CALM      30.54S
TOPEKA BILLARD CLEAR     23  20  88 CALM      30.55S
TOPEKA FORBES  CLEAR     20  17  88 CALM      30.54R
$$



USA.gov is the U.S. government's official web portal to all federal, state and local government web resources and services.